Weather History for Punta Gorda, FL

Change the Weather History Date:

Thursday, January 3, 2013

  Actual Average Record
Temperature  
Mean Temperature 70 °F -  
Max Temperature 82 °F 71 °F 84 °F (2007)
Min Temperature 57 °F 48 °F 30 °F (2008)
Cooling Degree Days 4    
Growing Degree Days 20 (Base 50)    
Moisture  
Dew Point 64 °F    
Average Humidity 83    
Maximum Humidity 100    
Minimum Humidity 56    
Precipitation  
Precipitation 0.01 in - - ()
Sea Level Pressure  
Sea Level Pressure 30.11 in    
Wind  
Wind Speed 3 mph (SSE)    
Max Wind Speed 15 mph    
Max Gust Speed 16 mph    
Visibility 6 miles    
Events Fog    
Averages and records for this station are not official NWS values.
T = Trace of Precipitation, MM = Missing Value Source: NWS Daily Summary

Daily Weather History Graph

Daily Weather History Graph

Search for Another Location

Airport:

Trip Planner

Search our weather history database for the weather conditions in past years. The results will help you decide how hot, cold, wet, or windy it might be!

Date:

Astronomy

Jan. 03, 2013 Rise Set
Actual Time 7:17 AM EST 5:47 PM EST
Civil Twilight 6:52 AM EST 6:13 PM EST
Nautical Twilight 6:23 AM EST 6:41 PM EST
Astronomical Twilight 5:55 AM EST 7:10 PM EST
Moon 11:42 PM EST (1/3) 11:04 AM EST (1/3)
Length of Visible Light 11h 20m
Length of Day
10h 30m
Waning Gibbous, 65% of the Moon is Illuminated
Jan 3
Waning Gibbous
Jan 4
Last Quarter
Jan 11
New
Jan 18
First Quarter
Jan 26
Full

Hourly Weather History & Observations

Time (EST) Temp. Heat Index Dew Point Humidity Pressure Visibility Wind Dir Wind Speed Gust Speed Precip Events Conditions
12:53 AM 64.9 °F - 64.0 °F 97% 30.09 in 0.2 mi Calm Calm - N/A Fog Fog
1:53 AM 63.0 °F - 62.1 °F 97% 30.09 in 0.2 mi Calm Calm - N/A Fog Fog
3:53 AM 59.0 °F - 57.9 °F 96% 30.08 in 0.5 mi Calm Calm - N/A Fog Fog
4:53 AM 59.0 °F - 57.9 °F 96% 30.08 in 0.5 mi Calm Calm - N/A Fog Fog
5:53 AM 57.9 °F - 57.0 °F 97% 30.08 in 0.8 mi Calm Calm - N/A   Mist
6:53 AM 57.9 °F - 57.9 °F 100% 30.10 in 0.2 mi Calm Calm - N/A Fog Fog
7:53 AM 60.1 °F - 60.1 °F 100% 30.12 in 0.2 mi Calm Calm - N/A Fog Fog
8:53 AM 64.0 °F - 63.0 °F 96% 30.13 in 0.5 mi Calm Calm - 0.01 in Fog Fog
9:34 AM 66.2 °F - 64.4 °F 94% 30.14 in 1.8 mi ESE 4.6 mph - N/A   Overcast
9:41 AM 66.2 °F - 64.4 °F 94% 30.14 in 2.0 mi ESE 4.6 mph - N/A   Overcast
9:53 AM 68.0 °F - 66.9 °F 96% 30.14 in 6.0 mi ESE 6.9 mph - N/A   Mostly Cloudy
10:05 AM 66.2 °F - 66.2 °F 100% 30.13 in 10.0 mi SE 6.9 mph - N/A   Scattered Clouds
10:53 AM 73.9 °F - 64.9 °F 73% 30.13 in 10.0 mi SE 3.5 mph - N/A   Clear
11:53 AM 79.0 °F - 64.9 °F 62% 30.10 in 10.0 mi SSE 9.2 mph - N/A   Clear
12:53 PM 80.1 °F 81.9 °F 64.9 °F 60% 30.07 in 10.0 mi SSE 11.5 mph 16.1 mph N/A   Partly Cloudy
1:53 PM 82.0 °F 84.5 °F 66.9 °F 60% 30.06 in 10.0 mi SW 11.5 mph - N/A   Mostly Cloudy
2:53 PM 82.0 °F 83.8 °F 64.9 °F 56% 30.06 in 10.0 mi WSW 15.0 mph - N/A   Partly Cloudy
3:53 PM 80.1 °F 81.9 °F 64.9 °F 60% 30.06 in 10.0 mi SW 9.2 mph - N/A   Clear
4:53 PM 79.0 °F - 64.9 °F 62% 30.08 in 10.0 mi SSW 10.4 mph - N/A   Partly Cloudy
5:53 PM 75.9 °F - 64.9 °F 69% 30.10 in 10.0 mi SSW 4.6 mph - N/A   Mostly Cloudy
6:53 PM 73.9 °F - 66.0 °F 76% 30.11 in 10.0 mi SSW 5.8 mph - N/A   Overcast
7:53 PM 73.0 °F - 66.9 °F 81% 30.12 in 10.0 mi South 4.6 mph - N/A   Overcast
8:53 PM 72.0 °F - 66.9 °F 84% 30.14 in 10.0 mi Calm Calm - N/A   Overcast
9:53 PM 72.0 °F - 66.9 °F 84% 30.15 in 10.0 mi North 5.8 mph - N/A   Overcast
10:19 PM 71.6 °F - 66.2 °F 83% 30.16 in 10.0 mi North 8.1 mph - N/A   Overcast
10:53 PM 71.1 °F - 66.0 °F 84% 30.16 in 10.0 mi NE 8.1 mph - N/A   Overcast
11:53 PM 70.0 °F - 64.9 °F 84% 30.15 in 10.0 mi East 11.5 mph - N/A   Overcast